Notices

What's New in latest Release from April 7th, 2021:

- Updated Glossary, including Speed of Maximum Gust, and Total Hourly Precipitation

- Updated national and regional climate services offices contacts and prices information

- Addition of station inventory lists for 1981-2010, 1971-2000, and 1961-1990 Normals.

If you haven't already, please take our survey and provide feedback about our website: https://eccc.sondage-survey.ca/f/LanguageSelection.aspx?s=442ca660-fcf1-47c0-95a9-59707d6fd709

Hourly Data Report for September 15, 2019

QUALICUM BEACH AIRPORT
BRITISH COLUMBIA
Current Station Operator: ECCC - MSC

49°20'14.000" N
124°23'38.000" W
58.20 m
1026562
71766
VOQ

Download Data

Hourly Data (September 2019)
Hourly Data Report for September 15, 2019
TIME
LST
Temp Definition
°C
Dew Point Definition
°C
Rel Hum Definition
%
Precip. Amount Definition
mm

Wind Dir Definition
10's deg

Wind Spd Definition
km/h
Visibility Definition
km
Stn Press Definition
kPa
Hmdx Definition


Wind Chill Definition


Weather Definition


00:00 13.4 13.1 98 0.0 29 3   99.85     LegendNANA
01:00 13.1 12.8 98 0.0 27 5   99.81     LegendNANA
02:00 12.3 12.0 98 0.0 24 2   99.75     LegendNANA
03:00 11.9 11.6 98 0.0 14 3   99.73     LegendNANA
04:00 11.5 11.2 98 0.0 35 2   99.70     LegendNANA
05:00 11.3 11.0 98 0.0 28 4   99.68     LegendNANA
06:00 11.3 10.9 98 0.0 36 2   99.70     LegendNANA
07:00 10.8 10.5 98 0.0 19 3   99.68     LegendNANA
08:00 12.1 11.5 96 0.0 28 3   99.70     LegendNANA
09:00 12.8 11.8 94 0.0 35 2   99.76     LegendNANA
10:00 14.0 12.5 91 0.0 10 5   99.78     LegendNANA
11:00 14.7 11.4 81 0.0 32 12   99.82     LegendNANA
12:00 13.3 11.5 89 2.1 9 4   99.83     LegendNANA
13:00 14.8 11.9 83 0.0 13 9   99.82     LegendNANA
14:00 15.0 12.6 86 0.1 12 7   99.80     LegendNANA
15:00 15.1 12.7 86 0.0 11 10   99.82     LegendNANA
16:00 17.0 11.2 69 0.0 12 9   99.84     LegendNANA
17:00 16.8 11.9 73 0.0 13 8   99.88     LegendNANA
18:00 14.8 12.3 85 0.0 9 5   99.93     LegendNANA
19:00 13.9 12.2 90 0.0 32 4   99.97     LegendNANA
20:00 12.9 11.8 93 0.0 0 1   100.03     LegendNANA
21:00 11.6 10.9 95 0.0 20 1   100.06     LegendNANA
22:00 10.9 10.3 96 0.0 28 4   100.09     LegendNANA
23:00 10.6 10.1 97 0.0 27 3   100.11     LegendNANA

Notes on Data Quality.

Legend

  • E = Estimated
  • M = Missing
  • NA = Not Available*
  • [empty] = Indicates an unobserved value
Date modified: